Regional Weather Roundup
Issued by NWS Newport/Morehead, NC

Current Version | Previous Version | Text Only | Print | Product List | Glossary On
Versions: 1 2 3 4 5 6 7 8 9 10 11 12 13 14 15 16 17 18 19 20 21 22 23 24 25 26 27 28 29 30 31 32 33 34 35 36 37 38 39 40 41 42 43 44 45 46 47 48 49 50
000
ASUS42 KMHX 201413
RWRMHX
WEATHER ROUNDUP FOR EASTERN NORTH CAROLINA
NATIONAL WEATHER SERVICE NEWPORT/MOREHEAD CITY NC
1000 AM EDT WED SEP 20 2017

NOTE: "FAIR" INDICATES FEW OR NO CLOUDS BELOW 12,000 FEET
WITH NO SIGNIFICANT WEATHER AND/OR OBSTRUCTIONS TO VISIBILITY

NCZ015>017-031-032-045>047-102-103-201500-
NORTH COAST

CITY           SKY/WX    TMP DP  RH WIND       PRES   REMARKS
EDENTON        SUNNY     78  67  70 CALM      30.00S
ELIZABETH CITY SUNNY     77  69  76 W12       29.98R
KITTY HAWK     PTSUNNY   72  65  80 CALM      29.96S
MANTEO         PTSUNNY   74  67  79 NW8       29.99R

$$

NCZ045>047-081-094-103-104-201500-
CENTRAL COAST

CITY           SKY/WX    TMP DP  RH WIND       PRES   REMARKS
FRISCO         MOSUNNY   78  69  73 NW8       29.99R

$$

NCZ095-097-098-100-101-201500-
SOUTHERN COAST

CITY           SKY/WX    TMP DP  RH WIND       PRES   REMARKS
BEAUFORT       SUNNY     79  69  71 W9        30.01S
CEDAR ISLAND   NOT AVBL
JACKSONVILLE   SUNNY     79  69  71 W9        30.02S
PINEY ISLAND     N/A    N/A N/A N/A W12       30.00S
WILMINGTON     SUNNY     80  68  66 W6        30.03R


$$

NCZ011>013-027>030-043-044-078>080-089-090>093-098-201500-
COASTAL PLAIN

CITY           SKY/WX    TMP DP  RH WIND       PRES   REMARKS
AHOSKIE          N/A     74  67  77 NW3       30.01R
CLINTON        SUNNY     77  69  78 W5        30.04R
ELIZABETHTOWN  NOT AVBL
GOLDSBORO      SUNNY     78  73  83 W7        30.01R
GREENVILLE     SUNNY     77  68  73 W5        30.04R
HAVELOCK       SUNNY     79  68  69 W8        30.03R
KENANSVILLE    SUNNY     77  66  69 W5        30.03S
KINSTON        NOT AVBL
NEW BERN       SUNNY     78  68  71 W7        30.03R
RICHLANDS      SUNNY     79  69  71 SW3       30.03S
ROCKY MOUNT    SUNNY     76  69  79 SW6       30.02S
WASHINGTON     SUNNY     78  68  71 W3        30.02R
WHITEVILLE     SUNNY     77  69  76 W3        30.04R

$$

AMZ130-135-150-152-154-156-158-170-250-252-270-ANZ085-086-088-633-658-670-201500-
MARINE OBSERVATIONS

STATION/POSITION TIME  TEMP    WIND        PRES    WAVE   SWELL
                       AIR SEA DIR/SP/G            HT/PER HT/PER
                 (UTC) (F)     (DEG/KT/KT) (MB)    (FT/S) (FT/S)
CHESAPEAKE LIGHT NOT AVBL
64 E VA BEACH    1350   70 69  290/ 12/ 14 1013.6   10/11   8/11
DUCK             1336   74 74  280/  8/ 10 1014.3
2 E DUCK         1330      75                N/A     6/11   3/11
OREGON INLET     1336   74 73  280/ 10/ 13 1014.9
13E OREGON INLT  1348      74                N/A     8/11   8/11
HATTERAS CG      1336   76 75  300/ 12/ 15 1015.5
DIAMOND BUOY     1350   76 74  300/ 12/ 14 1015.2    5/11   5/11
CAPE LOOKOUT     1400   78     290/  8/ 10 1015.8
BEAUFORT LAB     1336   78 74  290/  5/  8 1015.7
30 SE NEW RVR IN 1308   79     300/  6/ 10 1016.2
30 SE NEW RVR IN NOT AVBL
27 SE WRIGHTSVLE 1308   78 79  270/ 10/ 16 1016.4
5 SE WRIGHTSVLE  1308   76 78  310/ 12/ 16 1016.3
225 S CAPE HAT   1350   79 80  310/  6/  8 1017.1    8/10   8/10
41 SE CHARLESTON 1350   79 82  300/  8/ 10 1017.2    4/10   3/10

$$




USA.gov is the U.S. government's official web portal to all federal, state and local government web resources and services.